Peru, IN

6:04 AM EDT on March 29, 2017 (GMT -0400)
Grissom Air Reserve Base

Weather History for KGUS - October, 2011

Change the Weather History Date:

Tuesday, October 11, 2011

  Actual Average Record
Temperature  
Mean Temperature 66 °F -  
Max Temperature 81 °F 63 °F 84 °F (2008)
Min Temperature 51 °F 43 °F 30 °F (1996)
Growing Degree Days 16 (Base 50)    
Moisture  
Dew Point 45 °F    
Average Humidity 58    
Maximum Humidity 99    
Minimum Humidity 15    
Precipitation  
Precipitation 0.00 in - - ()
Sea Level Pressure  
Sea Level Pressure 30.01 in    
Wind  
Wind Speed 6 mph (SE)    
Max Wind Speed 10 mph    
Max Gust Speed 21 mph    
Visibility 10 miles    
Events      
Averages and records for this station are not official NWS values.
T = Trace of Precipitation, MM = Missing Value Source: NWS Daily Summary

Daily Weather History Graph

Daily Weather History Graph

Search for Another Location

Airport or City:

Trip Planner

Search our weather history database for the weather conditions in past years. The results will help you decide how hot, cold, wet, or windy it might be!

Date:

Astronomy

Oct. 11, 2011 Rise Set
Actual Time 7:51 AM EDT 7:10 PM EDT
Civil Twilight 7:23 AM EDT 7:38 PM EDT
Nautical Twilight 6:52 AM EDT 8:09 PM EDT
Astronomical Twilight 6:20 AM EDT 8:41 PM EDT
Moon 6:42 PM EDT (10/11) 7:28 AM EDT (10/11)
Length of Visible Light 12h 14m
Length of Day
11h 19m
Full, 100% of the Moon is Illuminated
Oct 11
Full
Oct 11
Full
Oct 19
Last Quarter
Oct 26
New
Nov 2
First Quarter

Hourly Weather History & Observations

Time (EDT) Temp. Dew Point Humidity Pressure Visibility Wind Dir Wind Speed Gust Speed Precip Events Conditions
12:55 AM 57.4 °F 47.8 °F 70% 30.08 in 10.0 mi ESE 4.6 mph - N/A   Clear
1:55 AM 55.0 °F 48.0 °F 77% 30.06 in 10.0 mi ESE 6.9 mph - N/A   Clear
2:55 AM 53.8 °F 48.4 °F 82% 30.06 in 10.0 mi SE 6.9 mph - N/A   Clear
3:55 AM 53.2 °F 49.8 °F 88% 30.06 in 10.0 mi ESE 6.9 mph - N/A   Clear
4:55 AM 52.9 °F 50.0 °F 90% 30.05 in 10.0 mi ESE 5.8 mph - N/A   Clear
5:55 AM 51.6 °F 51.1 °F 98% 30.06 in 10.0 mi ESE 5.8 mph - N/A   Clear
6:55 AM 51.8 °F 51.4 °F 99% 30.06 in 10.0 mi ESE 8.1 mph - N/A   Clear
7:55 AM 51.6 °F 51.4 °F 99% 30.07 in 10.0 mi ESE 6.9 mph - N/A   Clear
8:55 AM 55.9 °F 54.3 °F 94% 30.07 in 10.0 mi SE 4.6 mph - N/A   Clear
9:55 AM 62.2 °F 57.2 °F 84% 30.06 in 10.0 mi SE 6.9 mph - N/A   Clear
10:43 AM 68.0 °F 55.4 °F 64% 30.06 in 10.0 mi SSE 8.1 mph - N/A   Clear
10:55 AM 68.5 °F 54.3 °F 60% 30.05 in 10.0 mi SE 6.9 mph - N/A   Clear
11:55 AM 73.2 °F 47.1 °F 39% 30.04 in 10.0 mi South 5.8 mph - N/A   Clear
12:55 PM 76.5 °F 38.7 °F 26% 30.02 in 9.0 mi Variable 3.5 mph - N/A   Clear
1:55 PM 79.3 °F 33.6 °F 19% 29.99 in 10.0 mi Variable 5.8 mph - N/A   Clear
2:55 PM 80.6 °F 32.4 °F 17% 29.97 in 10.0 mi SE 8.1 mph - N/A   Clear
3:55 PM 80.6 °F 28.0 °F 15% 29.96 in 7.0 mi SE 9.2 mph 20.7 mph N/A   Clear
4:55 PM 79.7 °F 32.0 °F 18% 29.95 in 10.0 mi SSE 10.4 mph - N/A   Clear
5:55 PM 76.6 °F 34.0 °F 21% 29.95 in 10.0 mi SE 9.2 mph - N/A   Clear
6:55 PM 71.6 °F 37.4 °F 29% 29.95 in 10.0 mi SE 6.9 mph - N/A   Clear
7:55 PM 66.0 °F 41.2 °F 40% 29.96 in 10.0 mi SE 4.6 mph - N/A   Clear
8:55 PM 64.6 °F 41.9 °F 44% 29.95 in 10.0 mi East 3.5 mph - N/A   Clear
9:55 PM 62.6 °F 45.3 °F 53% 29.95 in 10.0 mi ESE 3.5 mph - N/A   Clear
10:55 PM 61.3 °F 46.0 °F 57% 29.95 in 10.0 mi East 3.5 mph - N/A   Clear
11:55 PM 60.1 °F 47.8 °F 64% 29.94 in 10.0 mi ESE 6.9 mph - N/A   Clear